Location: Newark
(48.8604°N, 2.3376°E)
Time: 23:55:53
(UTC+00:00)

XW-2C - Pass Details

Date: 11 December 2021
Orbit: 503 x 524 km, 97.5° (Epoch: 19 January)

Event Time Altitude Azimuth Distance (km) Brightness Sun altitude
Rises 05:04:06 0° 25° (NNE) 2,673 ? -23.5°
Reaches altitude 10° 05:06:36 10° 41° (NE) 1,777 ? -23.1°
Maximum altitude 05:09:36 22° 93° (E) 1,200 ? -22.6°
Drops below altitude 10° 05:12:35 10° 145° (SE) 1,760 ? -22.1°
Sets 05:15:02 0° 161° (SSE) 2,639 ? -21.7°
